Location: Dover
(48.8500°N, 53.9833°W)
Time: 17:03:38
(UTC+00:00)

Helios 1A Rocket - Pass Details

Date: 14 November 2025
Orbit: 439 x 451 km, 98.3° (Epoch: 09 December)

Event Time Altitude Azimuth Distance (km) Brightness Sun altitude
Exits shadow 21:11:02 18° 99° (E) 1,149 3.9 -12.3°
Drops below altitude 10° 21:13:17 10° 141° (SE) 1,566 4.9 -12.6°
Sets 21:15:44 0° 160° (SSE) 2,435 6.1 -13.0°
